Home > Time Zones > World Clock > Weather > Cuba > Havana > Past weeks

Flag for Cuba Weather past 2 weeks in Havana, Cuba

Now
86 °F

Passing clouds.


Feels Like: 89 °F
Forecast: N/A
Wind: 12 mph from South

Location: Aeropuerto Jose Marti - Rancho-Boyeros - Habana

Current Time: Apr 27, 2015 at 7:26:12 PM

Latest Report: Apr 27, 2015 at 6:55 PM


Visibility: 6 mi

Pressure: 29.80 "Hg

Humidity: 55%

Dew point: 68 °F

Location of HavanaLocation

Historic Weather in Havana — Graph

°F

Havana temperature yesterday

Maximum temperature yesterday: 91 °F (at 11:55 AM)
Minimum temperature yesterday: 75 °F (at 4:55 AM)
Average temperature yesterday: 83 °F

Past Weeks' High & Low Weather Summary

 TemperatureHumidityPressure
High95 °F (Apr 25, 2:55 PM)94% (Apr 23, 7:55 AM)30.12 "Hg (Apr 23, 7:55 AM)
Low70 °F (Apr 18, 5:55 AM)34% (Apr 25, 2:55 PM)29.77 "Hg (Apr 27, 5:55 PM)
Average80 °F68%29.98 "Hg
* Reported Apr 12 5:55 PM — Apr 27 5:55 PM, Havana, Weather by CustomWeather, © 2015

Note: Actual official high and low records may vary slightly from our data, if they occured in-between our weather recording intervals... More about our weather records

Advertising

Havana weather history for previous 24 hours

 ConditionsComfort  
Time TempWeatherWind HumidityBarometerVisibility
5:55 PM
Mon, Apr 27
88 °FScattered clouds.16 mph52%29.77 "Hg6 mi
4:55 PM90 °FScattered clouds.15 mph43%29.80 "Hg6 mi
3:55 PM90 °FScattered clouds.14 mph46%29.80 "Hg6 mi
2:55 PM90 °FScattered clouds.16 mph49%29.83 "Hg6 mi
1:55 PM90 °FScattered clouds.14 mph43%29.83 "Hg6 mi
12:55 PM90 °FScattered clouds.14 mph49%29.86 "Hg6 mi
11:55 AM88 °FScattered clouds.14 mph46%29.86 "Hg6 mi
10:55 AM86 °FScattered clouds.13 mph59%29.86 "Hg6 mi
9:55 AM84 °FScattered clouds.8 mph66%29.86 "Hg6 mi
8:55 AM82 °FScattered clouds.3 mph70%29.86 "Hg6 mi
7:55 AM79 °FPassing clouds.2 mph84%29.83 "Hg6 mi
6:55 AM73 °FPassing clouds.2 mph89%29.83 "Hg6 mi
5:55 AM73 °FClear.1 mph89%29.80 "Hg6 mi
4:55 AM75 °FClear.1 mph83%29.80 "Hg6 mi
3:55 AM75 °FClear.No wind83%29.83 "Hg6 mi
2:55 AM75 °FClear.3 mph83%29.83 "Hg6 mi
1:55 AM77 °FPassing clouds.5 mph83%29.86 "Hg6 mi
12:55 AM77 °FPassing clouds.6 mph83%29.86 "Hg6 mi
11:55 PM
Sun, Apr 26
79 °FClear.3 mph74%29.89 "Hg6 mi
10:55 PM79 °FClear.6 mph74%29.86 "Hg10 mi
9:55 PM81 °FPassing clouds.3 mph70%29.86 "HgN/A
8:55 PM82 °FPassing clouds.8 mph66%29.86 "HgN/A
7:55 PM84 °FPassing clouds.8 mph62%29.83 "HgN/A
Weather by CustomWeather, © 2015

See weather overviewHow to use our weather pages